This is the latest recevied weather packets stored in our database for station/object K3MV-13. If no packets are shown the sender has not sent any weather packets the latest 10 day(s).
| Time | Temp. | Humidity | Pressure | Rain* | Wind** | Luminosity | Snow |
|---|---|---|---|---|---|---|---|
| 1777634041 | -1.11° C | 97% | 1014 hPa | 0 mm | - | 45 W/m² | - |
| 1777633738 | -1.11° C | 97% | 1014.2 hPa | 0 mm | - | 33 W/m² | - |
| 1777633436 | -1.11° C | 97% | 1014.4 hPa | 0 mm | - | 30 W/m² | - |
| 1777633134 | -1.11° C | 97% | 1014.1 hPa | 0 mm | - | 26 W/m² | - |
| 1777632829 | -1.11° C | 97% | 1014.2 hPa | 0 mm | - | 23 W/m² | - |
| 1777632525 | -1.11° C | 97% | 1014.1 hPa | 0 mm | - | 20 W/m² | - |
| 1777632223 | -1.11° C | 97% | 1014.1 hPa | 0 mm | - | 17 W/m² | - |
| 1777631920 | -1.11° C | 97% | 1014.2 hPa | 0 mm | - | 12 W/m² | - |
| 1777631619 | -1.11° C | 97% | 1014.3 hPa | 0 mm | - | 9 W/m² | - |
| 1777631315 | -1.11° C | 97% | 1014.3 hPa | 0 mm | - | 6 W/m² | - |
| 1777631012 | -1.11° C | 97% | 1014.1 hPa | 0 mm | - | 4 W/m² | - |
| 1777630708 | -1.11° C | 97% | 1014.3 hPa | 0 mm | - | 3 W/m² | - |
| 1777630406 | -1.11° C | 97% | 1014.4 hPa | 0 mm | - | 1 W/m² | - |
| 1777630103 | -1.11° C | 97% | 1014.6 hPa | 0 mm | - | 1 W/m² | - |
| 1777629800 | -1.11° C | 97% | 1014.4 hPa | 0 mm | - | 0 W/m² | - |
| 1777629497 | -1.11° C | 97% | 1014.4 hPa | 0 mm | - | 0 W/m² | - |
| 1777629193 | -1.11° C | 97% | 1014.3 hPa | 0 mm | - | 0 W/m² | - |
| 1777628890 | -1.11° C | 97% | 1014.2 hPa | 0 mm | - | 0 W/m² | - |
| 1777628587 | -1.11° C | 97% | 1014.2 hPa | 0 mm | - | 0 W/m² | - |
| 1777628282 | -1.11° C | 97% | 1014.1 hPa | 0 mm | - | 0 W/m² | - |
| 1777627980 | -1.67° C | 96% | 1014 hPa | 0 mm | - | 0 W/m² | - |
| 1777627678 | -1.11° C | 96% | 1014 hPa | 0 mm | - | 0 W/m² | - |
| 1777627377 | -1.11° C | 96% | 1014.1 hPa | 0 mm | - | 0 W/m² | - |
| 1777627075 | -1.11° C | 97% | 1014.1 hPa | 0 mm | - | 0 W/m² | - |
| 1777626771 | -1.11° C | 96% | 1014.1 hPa | 0 mm | - | 0 W/m² | - |
* Rain latest hour (hover to see other rain measurements)
** Current wind speed in m/s (hover to see current wind gust speed)